Regional Weather Roundup
Issued by NWS Raleigh/Durham, NC

Current Version | Previous Version | Graphics & Text | Print | Product List | Glossary On
Versions: 1 2 3 4 5 6 7 8 9 10 11 12 13 14 15 16 17 18 19 20 21 22 23 24 25 26 27 28 29 30 31 32 33 34 35 36 37 38 39 40 41 42 43 44 45 46 47 48 49 50
000
ASUS42 KRAH 011310
RWRRAH
NORTH CAROLINA WEATHER ROUNDUP
NATIONAL WEATHER SERVICE RALEIGH NC
900 AM EDT TUE SEP 01 2015

NOTE: "FAIR" INDICATES FEW OR NO CLOUDS BELOW 12,000 FEET WITH NO
SIGNIFICANT WEATHER AND/OR OBSTRUCTIONS TO VISIBILITY.

NCZ001-053-055-056-065-067-011400-
WESTERN NORTH CAROLINA

CITY           SKY/WX    TMP DP  RH WIND       PRES   REMARKS
ASHEVILLE      SUNNY     68  62  81 N5        30.23R
JEFFERSON      SUNNY     66  58  75 CALM      30.26S
MORGANTON      SUNNY     72  67  83 SW3       30.22R
HICKORY        SUNNY     72  66  81 W5        30.16R
RUTHERFORDTON  SUNNY     74  66  75 N3        30.17R
MOUNT AIRY     SUNNY     73  67  82 CALM      30.17S
BOONE          SUNNY     64  62  93 CALM      30.27S
$$

NCZ021-022-025-041-071-084-088-011400-
CENTRAL NORTH CAROLINA

CITY           SKY/WX    TMP DP  RH WIND       PRES   REMARKS
CHARLOTTE      SUNNY     77  69  76 CALM      30.15R
GREENSBORO     MOSUNNY   76  70  82 NW6       30.13R
WINSTON-SALEM  SUNNY     75  67  76 NW5       30.15R
RALEIGH-DURHAM MOSUNNY   73  70  90 CALM      30.11S
FORT BRAGG     SUNNY     74  70  87 CALM      30.10S
FAYETTEVILLE   SUNNY     75  70  84 NE3       30.11R
BURLINGTON     SUNNY     73  72  96 SW5       30.12R
LAURINBURG     SUNNY     74  69  85 CALM      30.12S
$$

NCZ011-015-027-028-043-044-047-080-103-011400-
NORTHEASTERN NORTH CAROLINA

CITY           SKY/WX    TMP DP  RH WIND       PRES   REMARKS
ROCKY MT-WILSO CLOUDY    73  70  90 NW3       30.10S
GREENVILLE     CLOUDY    73  72  94 N3        30.11R
WASHINGTON     CLOUDY    73  72  96 N3        30.08S
ELIZABETH CITY CLOUDY    77  73  87 N8        30.07R
MANTEO         CLOUDY    77  74  91 N5        30.06R
CAPE HATTERAS  CLOUDY    79  75  87 VRB3      30.05R
$$

NCZ078-087-090-091-093-098-101-011400-
SOUTHEASTERN NORTH CAROLINA

CITY           SKY/WX    TMP DP  RH WIND       PRES   REMARKS
LUMBERTON      SUNNY     73  71  93 CALM      30.11S
GOLDSBORO      CLOUDY    75  72  91 NW6       30.09R
KINSTON        CLOUDY    73  73 100 CALM      30.10S FOG
KENANSVILLE      N/A     73  71  92 CALM      30.11S
NEW BERN       CLOUDY    76  73  91 NW6       30.09R
CHERRY POINT   PTSUNNY   77  74  90 NW6       30.09R
BEAUFORT       CLOUDY    76  75  97 W7        30.08R
JACKSONVILLE   CLOUDY    76  72  87 W6        30.09R
WILMINGTON     PTSUNNY   75  72  90 NW9       30.10R
$$




USA.gov is the U.S. government's official web portal to all federal, state and local government web resources and services.